Weather in Krasnoyarovo

Russia / Amur Oblast     51°27′18″N   128°26′13″E
temp.,
°C
wind,
m/s
gust,
m/s
humid.,
%
clouds,
%
prec.,
mm/h
press.,
hPa
HPBL,
m
18 april, sun
sun1800:00+4ssw34665 0.0 101154
03:00+2ssw34620 0.0 101156
06:00+1s35700 0.0 101178
09:00+8s57430 0.0 1010525
12:00+13s67330 0.0 10081191
15:00+14s66325 0.0 10061505
18:00+13s563711 0.0 10051256
21:00+8sse410540 0.0 1005226
19 april, mon
mon1900:00+6sse496362 0.0 1004185
03:00+4sse37725 0.0 1003129
06:00+4wsw36766 0.0 1004159
09:00+3nw91253100 0.0 1007825
12:00+4nw9123430 0.3 10081422
15:00+6nw1013250 0.3 10092061
18:00+4nw914275 0.0 10102286
21:000nw815365 0.0 10131802
20 april, tue
tue2000:00−2nw917370 0.0 10131317
03:00−3nw1018370 0.0 10131328
06:00−4nw917350 0.0 10141172
09:000nw913250 0.0 10151220
12:00+6nw811140 0.0 10151508
15:00+9nw691191 0.0 10141637
18:00+9wnw4715100 0.0 10141415
21:00+4e33225 0.0 101518
21 april, wed
wed2100:00+2ese35284 0.0 101567
03:00+1ese48355 0.0 1015131
06:00+1ese37454 0.0 1015129
09:00+9sse463943 0.0 1014409
12:00+17ssw67263 0.0 10121034
15:00+22s710190 0.0 10102056
18:00+20s811240 0.0 1010953
21:00+14s514370 0.0 1012281
22 april, thu
thu2200:00+11sse411470 0.0 1013199
03:00+11sse5154294 0.0 1012308
06:00+11sse7183979 0.0 1012435
09:00+14s61335100 0.0 1013728
12:00+18ssw81132100 0.3 10131044
15:00+22ssw5102460 1.0 10132308
18:00+17nw6940100 0.2 1017888
21:00+10nnw7125294 0.2 1021665